Flag for Australia Weather past 2 weeks in Tamworth, New South Wales, Australia

Now
72 °F

Sunny.


Feels Like: 74 °F
Forecast: 41 / 71 °F
Wind: 10 mph from Southwest

Location: Tamworth Airport

Current Time: Oct 1, 2014 at 5:04:35 PM

Latest Report: Oct 1, 2014 at 4:00 PM


Visibility: N/A

Pressure: 30.04 "Hg

Humidity: 15%

Dew point: 21 °F

Location of TamworthLocation

Historic Weather in Tamworth — Graph

°F

Tamworth temperature yesterday

Maximum temperature yesterday: 86 °F (at 2:00 PM)
Minimum temperature yesterday: 52 °F (at 2:30 AM)
Average temperature yesterday: 69 °F

Past Weeks' High & Low Weather Summary

 TemperatureHumidityPressure
High86 °F (Sep 30, 2:00 PM)94% (Sep 25, 8:00 AM)30.42 "Hg (Sep 25, 8:00 AM)
Low32 °F (Sep 19, 5:00 AM)12% (Sep 20, 1:00 PM)29.80 "Hg (Sep 16, 3:00 PM)
Average60 °F50%30.11 "Hg
* Reported Sep 16 3:00 PM — Oct 1 3:30 PM, Tamworth, Weather by CustomWeather, © 2014

Note: Actual official high and low records may vary slightly from our data, if they occured in-between our weather recording intervals... More about our weather records

Advertising

Tamworth weather history for previous 24 hours

 ConditionsComfort  
Time TempWeatherWind HumidityBarometerVisibility
3:30 PM
Oct 1
73 °FSunny.15 mph16%30.01 "HgN/A
3:00 PM73 °FSunny.15 mph19%30.01 "HgN/A
2:00 PM75 °FSunny.13 mph15%30.01 "HgN/A
1:30 PM75 °FSunny.13 mph19%30.01 "HgN/A
1:00 PM75 °FSunny.12 mph19%30.04 "HgN/A
12:30 PM73 °FSunny.13 mph20%30.04 "HgN/A
12:00 PM75 °FSunny.13 mph21%30.04 "HgN/A
11:30 AM73 °FSunny.10 mph27%30.04 "HgN/A
11:00 AM73 °FSunny.10 mph27%30.04 "HgN/A
10:00 AM72 °FSunny.10 mph27%30.07 "HgN/A
9:30 AM72 °FSunny.9 mph29%30.07 "HgN/A
9:00 AM70 °FSunny.8 mph31%30.07 "HgN/A
8:30 AM68 °FSunny.7 mph33%30.04 "HgN/A
8:00 AM66 °FSunny.9 mph35%30.04 "HgN/A
7:30 AM64 °FSunny.12 mph37%30.04 "HgN/A
7:00 AM64 °FSunny.7 mph37%30.04 "HgN/A
6:00 AM61 °FSunny.14 mph39%29.98 "HgN/A
5:00 AM59 °FSunny.9 mph48%29.95 "HgN/A
4:00 AM61 °FClear.6 mph52%29.95 "HgN/A
3:30 AM61 °FClear.6 mph52%29.92 "HgN/A
3:00 AM61 °FClear.5 mph52%29.92 "HgN/A
2:00 AM64 °FClear.8 mph49%29.95 "HgN/A
1:30 AM63 °FClear.5 mph52%29.95 "HgN/A
1:00 AM63 °FClear.7 mph52%29.92 "HgN/A
12:00 AM66 °FClear.10 mph46%29.95 "HgN/A
11:00 PM
Sep 30
63 °FClear.8 mph56%29.95 "HgN/A
10:00 PM64 °FClear.8 mph56%29.95 "HgN/A
9:30 PM64 °FClear.8 mph56%29.95 "HgN/A
9:00 PM70 °FClear.8 mph46%29.95 "HgN/A
8:00 PM70 °FClear.6 mph50%29.95 "HgN/A
7:00 PM73 °FClear.10 mph36%29.95 "HgN/A
6:30 PM77 °FClear.7 mph32%29.98 "HgN/A
6:00 PM77 °FClear.7 mph32%29.98 "HgN/A
5:30 PM77 °FClear.3 mph34%29.98 "HgN/A
5:00 PM81 °FClear.6 mph28%29.95 "HgN/A
Weather by CustomWeather, © 2014

See weather overviewHow to use our weather pages